When you browse on this site, cookies collect data to enhance your experience and personalize the content and advertising you see.
Visit our Privacy Policy to learn more. By continuing to use the site, you agree to this use of cookies and data.
  • In Austria
  • List of Countries
  • For 7 days
  • Water Temperature
  • Satellite Maps
  • Weather Map
  • News
  • Weather Widgets
  • user-avatar
    Login

    Hourly Weather Canberra

    Today, 19 March, Tuesday

    Time Temperature Precipitation Wind Pressure Humidity
    00:00 +16°C° 0 mm 2 mps 708 mmHg 94%
    01:00 +16°C° 0 mm 2 mps 708 mmHg 94%
    02:00 +16°C° 0 mm 2 mps 708 mmHg 95%
    03:00 +16°C° 0 mm 2 mps 708 mmHg 95%
    04:00 +16°C° 0 mm 1 mps 707 mmHg 95%
    05:00 +18°C° 0 mm 1 mps 708 mmHg 93%
    06:00 +18°C° 0 mm 1 mps 708 mmHg 91%
    07:00 +18°C° 0 mm 1 mps 708 mmHg 90%
    08:00 +19°C° 0 mm 2 mps 709 mmHg 79%
    09:00 +23°C° 0 mm 2 mps 709 mmHg 69%
    10:00 +25°C° 0 mm 3 mps 709 mmHg 59%
    11:00 +25°C° 0.3 mm 3 mps 709 mmHg 56%
    12:00 +26°C° 0.3 mm 3 mps 709 mmHg 54%
    13:00 +27°C° 0.3 mm 3 mps 708 mmHg 52%
    14:00 +26°C° 0.9 mm 3 mps 708 mmHg 58%
    15:00 +25°C° 0.9 mm 3 mps 708 mmHg 63%
    16:00 +24°C° 0.9 mm 3 mps 707 mmHg 68%
    17:00 +22°C° 0.5 mm 3 mps 708 mmHg 75%
    18:00 +20°C° 0.5 mm 2 mps 708 mmHg 82%
    19:00 +19°C° 0.5 mm 2 mps 708 mmHg 89%
    20:00 +18°C° 0 mm 2 mps 708 mmHg 91%
    21:00 +19°C° 0 mm 1 mps 708 mmHg 92%
    22:00 +18°C° 0 mm 1 mps 708 mmHg 94%
    23:00 +18°C° 0 mm 1 mps 708 mmHg 95%

    Tomorrow, 20 March, Wednesday

    Time Temperature Precipitation Wind Pressure Humidity
    00:00 +16°C° 0 mm 1 mps 708 mmHg 95%
    01:00 +16°C° 0 mm 1 mps 708 mmHg 95%
    02:00 +16°C° 0 mm 1 mps 708 mmHg 95%
    03:00 +15°C° 0 mm 1 mps 708 mmHg 95%
    04:00 +15°C° 0 mm 1 mps 708 mmHg 95%
    05:00 +15°C° 0 mm 1 mps 708 mmHg 94%
    06:00 +16°C° 0 mm 1 mps 708 mmHg 92%
    07:00 +16°C° 0 mm 1 mps 709 mmHg 91%
    08:00 +19°C° 0 mm 1 mps 709 mmHg 79%
    09:00 +22°C° 0 mm 1 mps 709 mmHg 68%
    10:00 +25°C° 0 mm 2 mps 710 mmHg 57%
    11:00 +26°C° 0 mm 1 mps 710 mmHg 52%
    12:00 +27°C° 0 mm 1 mps 710 mmHg 46%
    13:00 +29°C° 0 mm 1 mps 709 mmHg 41%
    14:00 +28°C° 0 mm 1 mps 709 mmHg 43%
    15:00 +28°C° 0 mm 1 mps 709 mmHg 46%
    16:00 +27°C° 0 mm 1 mps 708 mmHg 49%
    17:00 +25°C° 0.3 mm 2 mps 708 mmHg 59%
    18:00 +23°C° 0.3 mm 2 mps 709 mmHg 70%
    19:00 +20°C° 0.3 mm 3 mps 709 mmHg 81%
    20:00 +19°C° 0 mm 2 mps 709 mmHg 85%
    21:00 +19°C° 0 mm 2 mps 710 mmHg 90%
    22:00 +18°C° 0 mm 2 mps 710 mmHg 94%
    23:00 +19°C° 0 mm 1 mps 710 mmHg 93%

    Day after tomorrow, 21 March, Thursday

    Time Temperature Precipitation Wind Pressure Humidity
    00:00 +19°C° 0 mm 1 mps 710 mmHg 92%
    01:00 +19°C° 0 mm 1 mps 710 mmHg 91%
    02:00 +19°C° 0 mm 1 mps 709 mmHg 92%
    03:00 +18°C° 0 mm 1 mps 709 mmHg 93%
    04:00 +18°C° 0 mm 1 mps 709 mmHg 94%
    05:00 +18°C° 0 mm 1 mps 710 mmHg 93%
    06:00 +18°C° 0 mm 1 mps 710 mmHg 92%
    07:00 +18°C° 0 mm 1 mps 711 mmHg 91%
    08:00 +19°C° 0 mm 2 mps 711 mmHg 82%
    09:00 +21°C° 0 mm 2 mps 711 mmHg 74%
    10:00 +24°C° 0 mm 2 mps 712 mmHg 66%
    11:00 +25°C° 0 mm 2 mps 711 mmHg 62%
    12:00 +26°C° 0 mm 2 mps 711 mmHg 58%
    13:00 +27°C° 0 mm 2 mps 711 mmHg 54%
    14:00 +26°C° 1 mm 2 mps 710 mmHg 58%
    15:00 +25°C° 1 mm 2 mps 710 mmHg 62%
    16:00 +25°C° 1 mm 2 mps 709 mmHg 66%
    17:00 +23°C° 1.5 mm 2 mps 710 mmHg 74%
    18:00 +20°C° 1.5 mm 2 mps 710 mmHg 82%
    19:00 +19°C° 1.5 mm 2 mps 710 mmHg 89%
    20:00 +18°C° 0.5 mm 2 mps 710 mmHg 91%
    21:00 +18°C° 0.5 mm 2 mps 711 mmHg 93%
    22:00 +17°C° 0.5 mm 2 mps 711 mmHg 95%
    23:00 +17°C° 0 mm 2 mps 711 mmHg 95%

    22 March, Friday

    Time Temperature Precipitation Wind Pressure Humidity
    00:00 +17°C° 0 mm 2 mps 711 mmHg 94%
    01:00 +18°C° 0 mm 1 mps 711 mmHg 94%
    02:00 +18°C° 0 mm 1 mps 711 mmHg 93%
    03:00 +18°C° 0 mm 1 mps 710 mmHg 93%
    04:00 +18°C° 0 mm 1 mps 710 mmHg 92%
    05:00 +18°C° 0 mm 1 mps 711 mmHg 91%
    06:00 +18°C° 0 mm 1 mps 711 mmHg 90%
    07:00 +18°C° 0 mm 1 mps 711 mmHg 90%
    08:00 +20°C° 0 mm 1 mps 711 mmHg 82%
    09:00 +22°C° 0 mm 1 mps 711 mmHg 74%
    10:00 +23°C° 0 mm 2 mps 712 mmHg 67%
    11:00 +25°C° 0.1 mm 1 mps 711 mmHg 61%
    12:00 +26°C° 0.1 mm 1 mps 711 mmHg 55%
    13:00 +27°C° 0.1 mm 1 mps 711 mmHg 49%
    14:00 +27°C° 0.2 mm 1 mps 710 mmHg 49%
    15:00 +27°C° 0.2 mm 1 mps 710 mmHg 49%
    16:00 +27°C° 0.2 mm 1 mps 710 mmHg 48%
    17:00 +25°C° 0.1 mm 1 mps 710 mmHg 59%
    18:00 +23°C° 0.1 mm 1 mps 710 mmHg 69%
    19:00 +20°C° 0.1 mm 2 mps 710 mmHg 79%
    20:00 +20°C° 0.1 mm 1 mps 710 mmHg 83%
    21:00 +19°C° 0.1 mm 1 mps 710 mmHg 88%
    22:00 +19°C° 0.1 mm 1 mps 710 mmHg 92%
    23:00 +19°C° 0 mm 1 mps 710 mmHg 93%

    23 March, Saturday

    Time Temperature Precipitation Wind Pressure Humidity
    00:00 +19°C° 0 mm 1 mps 709 mmHg 94%
    01:00 +18°C° 0 mm 1 mps 709 mmHg 96%
    02:00 +18°C° 0 mm 1 mps 709 mmHg 95%
    03:00 +18°C° 0 mm 1 mps 709 mmHg 94%
    04:00 +18°C° 0 mm 1 mps 708 mmHg 93%
    05:00 +16°C° 0 mm 0 mps 709 mmHg 92%
    06:00 +16°C° 0 mm 0 mps 709 mmHg 91%
    07:00 +16°C° 0 mm 0 mps 709 mmHg 90%
    08:00 +20°C° 0 mm 1 mps 709 mmHg 82%
    09:00 +22°C° 0 mm 1 mps 709 mmHg 74%
    10:00 +23°C° 0 mm 2 mps 709 mmHg 65%
    11:00 +24°C° 0.1 mm 2 mps 709 mmHg 64%
    12:00 +24°C° 0.1 mm 2 mps 708 mmHg 62%
    13:00 +25°C° 0.1 mm 3 mps 708 mmHg 60%
    14:00 +26°C° 0 mm 3 mps 707 mmHg 55%
    15:00 +27°C° 0 mm 3 mps 707 mmHg 50%
    16:00 +28°C° 0 mm 3 mps 706 mmHg 45%
    17:00 +27°C° 0 mm 3 mps 706 mmHg 48%
    18:00 +25°C° 0 mm 3 mps 706 mmHg 51%
    19:00 +24°C° 0 mm 2 mps 706 mmHg 54%
    20:00 +23°C° 0 mm 2 mps 706 mmHg 58%
    21:00 +22°C° 0 mm 1 mps 706 mmHg 63%
    22:00 +21°C° 0 mm 1 mps 706 mmHg 67%
    23:00 +21°C° 0 mm 1 mps 706 mmHg 69%

    24 March, Sunday

    Time Temperature Precipitation Wind Pressure Humidity
    00:00 +21°C° 0 mm 1 mps 705 mmHg 71%
    01:00 +20°C° 0 mm 1 mps 705 mmHg 73%
    02:00 +21°C° 0.1 mm 1 mps 705 mmHg 74%
    03:00 +19°C° 0.1 mm 0 mps 705 mmHg 75%
    04:00 +19°C° 0.1 mm 0 mps 705 mmHg 76%
    05:00 +21°C° 0 mm 1 mps 706 mmHg 76%
    06:00 +21°C° 0 mm 1 mps 706 mmHg 76%
    07:00 +20°C° 0 mm 2 mps 707 mmHg 76%
    08:00 +21°C° 0 mm 2 mps 707 mmHg 67%
    09:00 +24°C° 0 mm 3 mps 707 mmHg 58%
    10:00 +25°C° 0 mm 4 mps 708 mmHg 50%
    11:00 +27°C° 0 mm 4 mps 707 mmHg 43%
    12:00 +29°C° 0 mm 4 mps 707 mmHg 36%
    13:00 +32°C° 0 mm 5 mps 707 mmHg 29%
    14:00 +30°C° 0 mm 5 mps 707 mmHg 30%
    15:00 +30°C° 0 mm 5 mps 706 mmHg 31%
    16:00 +29°C° 0 mm 5 mps 706 mmHg 32%
    17:00 +27°C° 0 mm 4 mps 706 mmHg 39%
    18:00 +25°C° 0 mm 3 mps 706 mmHg 45%
    19:00 +23°C° 0 mm 2 mps 707 mmHg 51%
    20:00 +21°C° 0 mm 2 mps 706 mmHg 54%
    21:00 +21°C° 0 mm 1 mps 706 mmHg 56%
    22:00 +21°C° 0 mm 1 mps 706 mmHg 58%
    23:00 +21°C° 0 mm 1 mps 706 mmHg 57%
    Show more